Flag for Greece Weather past 2 weeks in Piraeus, Greece

Now
50 °F

Passing clouds.


Feels Like: 46 °F
Forecast: 49 / 58 °F
Wind: 10 mph from Northwest

Location: Elefsis Airport

Current Time: Jan 29, 2015 at 9:37:35 PM

Latest Report: Jan 29, 2015 at 8:50 PM


Visibility: N/A

Pressure: 29.68 "Hg

Humidity: 82%

Dew point: 45 °F

Location of PiraeusLocation

Historic Weather in Piraeus — Graph

°F

Piraeus temperature yesterday

Maximum temperature yesterday: 59 °F (at 2:50 PM)
Minimum temperature yesterday: 37 °F (at 5:20 AM)
Average temperature yesterday: 48 °F

Past Weeks' High & Low Weather Summary

 TemperatureHumidityPressure
High64 °F (Jan 20, 2:20 PM)100% (Jan 20, 4:20 AM)30.33 "Hg (Jan 20, 4:20 AM)
Low34 °F (Jan 15, 6:50 AM)25% (Jan 15, 12:20 PM)29.65 "Hg (Jan 29, 12:50 PM)
Average52 °F76%29.97 "Hg
* Reported Jan 14 8:20 PM — Jan 29 8:20 PM, Piraeus, Weather by CustomWeather, © 2014

Note: Actual official high and low records may vary slightly from our data, if they occured in-between our weather recording intervals... More about our weather records

Advertising

Piraeus weather history for previous 24 hours

 ConditionsComfort  
Time TempWeatherWind HumidityBarometerVisibility
8:20 PM
Jan 29
50 °FPartly cloudy.12 mph82%29.68 "HgN/A
7:50 PM50 °FPartly cloudy.8 mph88%29.68 "HgN/A
7:20 PM52 °FPartly cloudy.3 mph82%29.68 "HgN/A
6:50 PM52 °FPartly cloudy.No wind82%29.68 "HgN/A
6:20 PM52 °FPartly cloudy.5 mph82%29.65 "HgN/A
5:50 PM52 °FPartly cloudy.No wind82%29.65 "HgN/A
5:20 PM52 °FBroken clouds.5 mph82%29.65 "HgN/A
4:50 PM52 °FLight rain. Broken clouds.7 mph88%29.65 "HgN/A
4:20 PM52 °FLight rain. Broken clouds.7 mph88%29.65 "HgN/A
3:50 PM52 °FLight rain. Partly sunny.5 mph88%29.65 "HgN/A
3:20 PM54 °FLight rain. Partly sunny.No wind82%29.65 "HgN/A
2:50 PM54 °FLight rain. Partly sunny.5 mph82%29.65 "HgN/A
2:20 PM54 °FLight rain. Partly sunny.6 mph77%29.65 "HgN/A
1:50 PM57 °FLight rain. Partly sunny.No wind63%29.65 "HgN/A
1:20 PM57 °FBroken clouds.7 mph59%29.65 "HgN/A
12:50 PM57 °FScattered clouds.5 mph63%29.65 "HgN/A
12:20 PM59 °FScattered clouds.No wind59%29.68 "HgN/A
11:50 AM57 °FBroken clouds.No wind63%29.68 "HgN/A
11:20 AM55 °FBroken clouds.No wind67%29.68 "HgN/A
10:50 AM55 °FBroken clouds.No wind72%29.68 "HgN/A
10:20 AM54 °FBroken clouds.No wind82%29.68 "HgN/A
9:50 AM50 °FBroken clouds.No wind82%29.68 "HgN/A
9:20 AM50 °FBroken clouds.No wind88%29.68 "HgN/A
8:50 AM48 °FLight rain. Partly sunny.No wind94%29.68 "HgN/A
8:20 AM48 °FPartly sunny.No wind94%29.68 "HgN/A
7:50 AM48 °FPartly sunny.3 mph94%29.68 "HgN/A
7:20 AM48 °FLight rain. Passing clouds.No wind87%29.68 "HgN/A
6:50 AM48 °FLight rain. Passing clouds.No wind87%29.68 "HgN/A
5:50 AM48 °FLight rain. Passing clouds.No wind87%29.68 "HgN/A
4:50 AM48 °FPassing clouds.6 mph87%29.68 "HgN/A
4:20 AM50 °FPassing clouds.No wind82%29.68 "HgN/A
3:20 AM50 °FPassing clouds.No wind82%29.71 "HgN/A
2:50 AM50 °FPassing clouds.No wind82%29.71 "HgN/A
2:20 AM50 °FPassing clouds.6 mph82%29.74 "HgN/A
1:50 AM50 °FLight rain. Passing clouds.No wind82%29.74 "HgN/A
1:20 AM48 °FLight rain. Passing clouds.No wind94%29.77 "HgN/A
12:50 AM48 °FLight rain. Passing clouds.No wind94%29.77 "HgN/A
12:20 AM50 °FLight rain. Passing clouds.No wind82%29.77 "HgN/A
11:50 PM
Jan 28
50 °FLight rain. Passing clouds.No wind82%29.77 "HgN/A
11:20 PM50 °FLight rain. Passing clouds.8 mph88%29.80 "HgN/A
10:50 PM50 °FLight rain. Passing clouds.8 mph88%29.80 "HgN/A
10:20 PM52 °FLight rain. Passing clouds.7 mph77%29.80 "HgN/A
9:50 PM52 °FPartly cloudy.6 mph72%29.80 "HgN/A
9:20 PM52 °FPartly cloudy.7 mph72%29.80 "HgN/A
Weather by CustomWeather, © 2014

See weather overviewHow to use our weather pages